Location: Ariel
(45.9570°N, 122.5700°W)
Time: 11:42:36
(UTC-07:00)

Explorer 7 - All Passes

Search period start: 16 July 2019 00:00
Search period end: 26 July 2019 00:00
Orbit: 485 x 680 km, 50.3° (Epoch: 16 July)

Date Brightness Start Highest point End Pass type
(mag) Time Alt. Az. Time Alt. Az. Time Alt. Az.
16 Jul - 00:02:31 10° S 00:05:20 20° SE 00:08:09 10° E visible
16 Jul - 01:41:40 10° WSW 01:45:25 88° NNW 01:49:16 10° ENE visible
16 Jul - 03:22:32 10° WNW 03:26:11 43° N 03:29:58 10° ENE visible
16 Jul - 05:03:14 10° WNW 05:07:05 60° NNE 05:11:09 10° E daylight
16 Jul - 06:43:46 10° WNW 06:47:33 41° SW 06:51:33 10° SE daylight
17 Jul - 00:06:52 10° SSW 00:10:13 31° SE 00:13:36 10° E visible
17 Jul - 01:46:48 10° WSW 01:50:31 65° NNW 01:54:21 10° ENE visible
17 Jul - 03:27:44 10° WNW 03:31:23 42° N 03:35:11 10° ENE visible
17 Jul - 05:08:19 10° WNW 05:12:13 77° NNE 05:16:20 10° ESE daylight
17 Jul - 06:49:04 10° W 06:52:30 27° SW 06:56:07 10° SSE daylight
18 Jul - 00:11:33 10° SW 00:15:11 49° SSE 00:18:50 10° ENE visible
18 Jul - 01:52:00 10° W 01:55:41 52° NNW 01:59:27 10° ENE visible
18 Jul - 03:32:55 10° WNW 03:36:35 45° N 03:40:25 10° E visible
18 Jul - 05:13:24 10° WNW 05:17:18 78° SSW 05:21:25 10° ESE daylight
18 Jul - 06:54:37 10° W 06:57:23 18° SW 07:00:16 10° S daylight
18 Jul - 22:38:03 10° S 22:40:15 15° SE 22:42:25 10° E night (unlit)
19 Jul - 00:16:27 10° WSW 00:20:12 74° SSE 00:23:59 10° ENE visible
19 Jul - 01:57:13 10° W 02:00:52 45° N 02:04:35 10° ENE visible
19 Jul - 03:38:02 10° WNW 03:41:47 52° NNE 03:45:40 10° E visible
19 Jul - 05:18:31 10° WNW 05:22:20 53° SSW 05:26:20 10° SE daylight
19 Jul - 07:01:03 10° WSW 07:02:14 11° SW 07:03:25 10° SSW daylight
19 Jul - 22:42:02 10° SSW 22:45:05 24° SE 22:48:08 10° E visible
20 Jul - 00:21:31 10° WSW 00:25:16 79° NNW 00:29:04 10° ENE visible
20 Jul - 02:02:27 10° WNW 02:06:04 42° N 02:09:46 10° ENE visible
20 Jul - 03:43:08 10° WNW 03:46:56 64° NNE 03:50:53 10° E visible
20 Jul - 05:23:44 10° WNW 05:27:19 35° SW 05:31:04 10° SSE daylight
20 Jul - 22:46:30 10° SSW 22:50:01 36° SE 22:53:30 10° ENE visible
21 Jul - 00:26:40 10° W 00:30:23 60° NNW 00:34:08 10° ENE visible
21 Jul - 02:07:39 10° WNW 02:11:16 42° N 02:14:58 10° ENE visible
21 Jul - 03:48:12 10° WNW 03:52:03 85° NNE 03:56:02 10° ESE visible
21 Jul - 05:29:06 10° W 05:32:14 23° SW 05:35:29 10° SSE daylight
21 Jul - 21:14:11 10° SSE 21:15:09 11° SE 21:16:08 10° ESE daylight
21 Jul - 22:51:16 10° SW 22:55:00 56° SSE 22:58:41 10° ENE visible
22 Jul - 00:31:54 10° W 00:35:33 49° N 00:39:15 10° ENE visible
22 Jul - 02:12:49 10° WNW 02:16:28 46° N 02:20:13 10° E visible
22 Jul - 03:53:18 10° WNW 03:57:06 69° SSW 04:01:04 10° SE visible
22 Jul - 05:34:52 10° W 05:37:06 15° SW 05:39:23 10° S daylight
22 Jul - 21:17:21 10° S 21:19:59 18° SE 21:22:34 10° E daylight
22 Jul - 22:56:14 10° WSW 23:00:02 84° SSE 23:03:48 10° ENE visible
23 Jul - 00:37:08 10° W 00:40:44 43° N 00:44:23 10° ENE visible
23 Jul - 02:17:55 10° WNW 02:21:39 54° NNE 02:25:27 10° E visible
23 Jul - 03:58:27 10° WNW 04:02:07 45° SSW 04:05:56 10° SE visible
23 Jul - 21:21:34 10° SSW 21:24:52 28° SE 21:28:07 10° E visible
23 Jul - 23:01:20 10° WSW 23:05:07 71° NNW 23:08:53 10° ENE visible
24 Jul - 00:42:21 10° WNW 00:45:57 41° N 00:49:34 10° ENE visible
24 Jul - 02:23:00 10° WNW 02:26:46 70° NNE 02:30:39 10° ESE visible
24 Jul - 04:03:42 10° W 04:07:04 30° SW 04:10:33 10° SSE visible
24 Jul - 21:26:09 10° SW 21:29:49 43° SE 21:33:24 10° ENE visible
24 Jul - 23:06:31 10° W 23:10:16 55° NNW 23:13:58 10° ENE visible
25 Jul - 00:47:32 10° WNW 00:51:09 43° N 00:54:47 10° ENE visible
25 Jul - 02:28:05 10° WNW 02:31:52 87° SSW 02:35:45 10° ESE visible
25 Jul - 04:09:11 10° W 04:11:58 19° SW 04:14:50 10° S visible
25 Jul - 19:52:57 10° SSE 19:54:52 13° SE 19:56:46 10° ESE daylight
25 Jul - 21:30:59 10° SW 21:34:49 65° SSE 21:38:33 10° ENE visible
25 Jul - 23:11:45 10° W 23:15:26 46° N 23:19:05 10° ENE visible
